ON7EQ-13 Weather Reports


time (UTC)temp
C
wind
direction
speed
KPH
gust
KPH
rain 1hr
cm
rain 24hr
cm
rain mn
cm
humidity
%
barometer
mb
20260510113410 23 50 0.0 19.3 0.00 0.00 0.00 48 1012.0
20260510112410 23 75 12.9 14.5 0.00 0.00 0.00 48 1012.2
20260510111410 23 65 0.0 12.9 0.00 0.00 0.00 48 1012.3
20260510110410 22 65 3.2 12.9 0.00 0.00 0.00 48 1012.3
20260510105411 22 75 4.8 9.7 0.00 0.00 0.00 51 1012.6
20260510104410 22 135 1.6 12.9 0.00 0.00 0.00 51 1012.6
20260510103410 21 90 11.3 16.1 0.00 0.00 0.00 51 1012.7
20260510102410 21 45 1.6 19.3 0.00 0.00 0.00 52 1012.8
20260510101410 21 70 3.2 22.5 0.00 0.00 0.00 52 1012.9
20260510100410 21 65 12.9 17.7 0.00 0.00 0.00 54 1012.9
20260510095410 21 70 6.4 12.9 0.00 0.00 0.00 51 1013.0
20260510094410 20 20 0.0 14.5 0.00 0.00 0.00 56 1013.1
20260510093410 20 45 8.0 12.9 0.00 0.00 0.00 56 1013.3
20260510092411 20 65 4.8 16.1 0.00 0.00 0.00 56 1013.3
20260510091410 20 40 1.6 12.9 0.00 0.00 0.00 58 1013.3
20260510090410 20 85 4.8 4.8 0.00 0.00 0.00 60 1013.4
20260510085410 19 90 0.0 9.7 0.00 0.00 0.00 60 1013.3
20260510084410 18 80 1.6 24.1 0.00 0.00 0.00 62 1013.4
20260510083410 18 80 1.6 9.7 0.00 0.00 0.00 64 1013.5
20260510082410 18 35 0.0 9.7 0.00 0.00 0.00 65 1013.6
20260510081410 17 55 1.6 12.9 0.00 0.00 0.00 66 1013.6
20260510080410 17 55 1.6 14.5 0.00 0.00 0.00 67 1013.6
20260510075410 16 75 0.0 4.8 0.00 0.00 0.00 70 1013.7
20260510074410 16 90 0.0 16.1 0.00 0.00 0.00 71 1013.8
20260510072411 15 65 3.2 22.5 0.00 0.00 0.00 74 1013.9
20260510071410 15 75 12.9 30.6 0.00 0.00 0.00 78 1014.0
20260510070410 14 110 1.6 16.1 0.00 0.00 0.00 81 1014.1
20260510065410 13 0 0.0 16.1 0.00 0.00 0.00 84 1014.0
20260510064410 13 80 0.0 12.9 0.00 0.00 0.00 87 1014.1
20260510063410 12 215 0.0 1.6 0.00 0.00 0.00 90 1013.9
20260510062410 12 95 0.0 4.8 0.00 0.00 0.00 93 1014.0
20260510061410 12 135 0.0 3.2 0.00 0.00 0.00 95 1014.1
20260510060410 11 135 0.0 0.0 0.00 0.00 0.00 97 1014.1
20260510055410 11 135 0.0 3.2 0.00 0.00 0.00 99 1014.1
20260510054411 10 150 0.0 0.0 0.00 0.00 0.00 99 1014.1
20260510053410 10 145 0.0 0.0 0.00 0.00 0.00 99 1014.1
20260510052410 10 150 0.0 0.0 0.00 0.00 0.00 99 1014.1
20260510051410 9 150 0.0 0.0 0.00 0.00 0.00 99 1014.1
20260510050410 9 150 0.0 0.0 0.00 0.00 0.00 99 1014.1
20260510045410 9 145 0.0 0.0 0.00 0.00 0.00 99 1014.1
20260510044410 8 150 0.0 0.0 0.00 0.00 0.00 99 1014.1
20260510043410 8 150 0.0 0.0 0.00 0.00 0.00 99 1014.0
20260510042410 8 150 0.0 0.0 0.00 0.00 0.00 99 1013.9
20260510041410 8 150 0.0 0.0 0.00 0.00 0.00 99 1013.9
20260510040410 8 150 0.0 0.0 0.00 0.00 0.00 99 1013.9
20260510035410 8 150 0.0 0.0 0.00 0.00 0.00 99 1013.9
20260510034410 8 150 0.0 0.0 0.00 0.00 0.00 99 1014.0
20260510033410 8 150 0.0 0.0 0.00 0.00 0.00 98 1014.1
20260510032410 8 145 0.0 0.0 0.00 0.00 0.00 98 1014.0
20260510031410 8 145 0.0 0.0 0.00 0.00 0.00 97 1014.1
20260510030410 8 150 0.0 0.0 0.00 0.00 0.00 97 1014.2
20260510025410 8 150 0.0 0.0 0.00 0.00 0.00 96 1014.1
20260510024410 8 150 0.0 0.0 0.00 0.00 0.00 96 1014.1
20260510023410 8 150 0.0 0.0 0.00 0.00 0.00 95 1014.1
20260510022410 8 150 0.0 0.0 0.00 0.00 0.00 95 1014.2
20260510021410 8 145 0.0 0.0 0.00 0.00 0.00 94 1014.3
20260510020410 8 145 0.0 0.0 0.00 0.00 0.00 92 1014.2
20260510015410 8 145 0.0 0.0 0.00 0.00 0.00 92 1014.3
20260510014410 9 150 0.0 0.0 0.00 0.00 0.00 91 1014.3
20260510013410 9 150 0.0 0.0 0.00 0.00 0.00 90 1014.3
20260510012410 9 150 0.0 0.0 0.00 0.00 0.00 89 1014.3
20260510011410 9 150 0.0 0.0 0.00 0.00 0.00 88 1014.3
20260510010410 10 145 0.0 0.0 0.00 0.00 0.00 87 1014.4
20260510005410 10 150 0.0 0.0 0.00 0.00 0.00 86 1014.5
20260510004410 10 150 0.0 0.0 0.00 0.00 0.00 85 1014.6
20260510003410 10 150 0.0 0.0 0.00 0.00 0.00 85 1014.6
20260510002410 10 150 0.0 0.0 0.00 0.00 0.00 84 1014.6
20260510001410 10 150 0.0 0.0 0.00 0.00 0.00 84 1014.6
20260510000411 10 150 0.0 0.0 0.00 0.00 0.00 84 1014.8
20260509235410 10 150 0.0 0.0 0.00 0.00 0.00 82 1014.9
20260509234410 10 145 0.0 0.0 0.00 0.00 0.00 81 1014.9
20260509233410 10 150 0.0 0.0 0.00 0.00 0.00 81 1015.0
20260509232410 10 150 0.0 0.0 0.00 0.00 0.00 80 1014.9
20260509231410 11 145 0.0 0.0 0.00 0.00 0.00 79 1014.9
20260509230411 11 150 0.0 0.0 0.00 0.00 0.00 79 1014.9
20260509225410 11 150 0.0 0.0 0.00 0.00 0.00 79 1015.0
20260509224410 11 145 0.0 0.0 0.00 0.00 0.00 78 1014.9
20260509223410 11 150 0.0 0.0 0.00 0.00 0.00 77 1014.9
20260509222410 11 150 0.0 0.0 0.00 0.00 0.00 76 1015.0
20260509221410 11 150 0.0 0.0 0.00 0.00 0.00 76 1015.1
20260509220410 12 150 0.0 0.0 0.00 0.00 0.00 75 1015.0
20260509215410 12 150 0.0 0.0 0.00 0.00 0.00 74 1015.1
20260509214410 12 150 0.0 0.0 0.00 0.00 0.00 74 1014.9
20260509213412 12 145 0.0 0.0 0.00 0.00 0.00 73 1015.0
20260509212410 12 150 0.0 0.0 0.00 0.00 0.00 73 1014.9
20260509211410 12 145 0.0 0.0 0.00 0.00 0.00 73 1014.8
20260509210411 13 170 0.0 0.0 0.00 0.00 0.00 73 1014.8
20260509205410 13 170 0.0 0.0 0.00 0.00 0.00 73 1014.7
20260509204410 13 170 0.0 0.0 0.00 0.00 0.00 71 1014.8
20260509203410 13 185 0.0 0.0 0.00 0.00 0.00 71 1014.8
20260509202410 13 185 0.0 0.0 0.00 0.00 0.00 70 1014.9
20260509201410 14 185 0.0 0.0 0.00 0.00 0.00 69 1015.0
20260509200410 14 185 0.0 0.0 0.00 0.00 0.00 68 1014.8
20260509195410 15 185 0.0 0.0 0.00 0.00 0.00 68 1014.7
20260509194410 15 185 0.0 0.0 0.00 0.00 0.00 67 1014.5
20260509193410 15 185 0.0 0.0 0.00 0.00 0.00 66 1014.5
20260509192410 16 185 0.0 0.0 0.00 0.00 0.00 65 1014.6
20260509191410 16 185 0.0 0.0 0.00 0.00 0.00 64 1014.6
20260509190410 16 185 0.0 1.6 0.00 0.00 0.00 64 1014.5
20260509185410 17 70 0.0 0.0 0.00 0.00 0.00 63 1014.3
20260509184410 17 70 0.0 0.0 0.00 0.00 0.00 62 1014.3
20260509183410 18 70 0.0 0.0 0.00 0.00 0.00 59 1014.3
20260509182410 18 70 0.0 0.0 0.00 0.00 0.00 57 1014.3
20260509181410 19 70 0.0 0.0 0.00 0.00 0.00 55 1014.3
20260509180410 21 70 0.0 0.0 0.00 0.00 0.00 53 1014.2
20260509175410 22 70 0.0 0.0 0.00 0.00 0.00 50 1014.2
20260509174410 23 70 0.0 1.6 0.00 0.00 0.00 47 1014.1
20260509173410 23 70 0.0 1.6 0.00 0.00 0.00 48 1014.0
20260509172410 22 70 0.0 0.0 0.00 0.00 0.00 50 1014.0
20260509171410 22 70 0.0 0.0 0.00 0.00 0.00 48 1013.9
20260509170410 23 70 0.0 1.6 0.00 0.00 0.00 45 1014.0
20260509165410 23 70 0.0 0.0 0.00 0.00 0.00 48 1014.1
20260509164410 23 70 0.0 1.6 0.00 0.00 0.00 47 1014.3
20260509163410 21 70 0.0 0.0 0.00 0.00 0.00 52 1014.2
20260509162410 22 70 0.0 0.0 0.00 0.00 0.00 48 1014.3
20260509161410 23 70 0.0 3.2 0.00 0.00 0.00 45 1014.2
20260509160410 25 60 0.0 3.2 0.00 0.00 0.00 42 1014.3
20260509155413 25 60 0.0 0.0 0.00 0.00 0.00 47 1014.3
20260509154410 24 60 0.0 4.8 0.00 0.00 0.00 44 1014.3
20260509153410 26 95 0.0 3.2 0.00 0.00 0.00 42 1014.3
20260509152410 26 130 1.6 4.8 0.00 0.00 0.00 41 1014.5
20260509151410 27 30 0.0 9.7 0.00 0.00 0.00 40 1014.5
20260509150410 27 65 0.0 8.0 0.00 0.00 0.00 40 1014.6
20260509145410 27 70 3.2 9.7 0.00 0.00 0.00 41 1014.6
20260509144410 26 150 0.0 4.8 0.00 0.00 0.00 40 1014.6
20260509143410 26 75 1.6 8.0 0.00 0.00 0.00 43 1014.7
20260509142410 26 75 0.0 8.0 0.00 0.00 0.00 42 1014.8
20260509141411 25 60 1.6 6.4 0.00 0.00 0.00 44 1014.8
20260509140411 23 125 0.0 6.4 0.00 0.00 0.00 47 1015.0
20260509135410 23 25 0.0 9.7 0.00 0.00 0.00 47 1015.0
20260509134410 23 85 1.6 9.7 0.00 0.00 0.00 46 1015.1
20260509133410 26 50 6.4 8.0 0.00 0.00 0.00 44 1015.2
20260509132410 25 45 0.0 4.8 0.00 0.00 0.00 46 1015.3
20260509131410 23 90 0.0 9.7 0.00 0.00 0.00 49 1015.5
20260509130412 23 155 1.6 6.4 0.00 0.00 0.00 48 1015.6
20260509125410 22 70 0.0 8.0 0.00 0.00 0.00 49 1015.7
20260509124410 23 65 1.6 9.7 0.00 0.00 0.00 48 1015.8
20260509123410 24 90 1.6 8.0 0.00 0.00 0.00 47 1015.8
20260509122410 25 110 0.0 4.8 0.00 0.00 0.00 45 1016.0
20260509121410 23 145 0.0 8.0 0.00 0.00 0.00 48 1016.0
20260509120410 22 160 4.8 9.7 0.00 0.00 0.00 47 1016.2
20260509115410 24 260 0.0 8.0 0.00 0.00 0.00 44 1016.3
20260509114410 24 35 3.2 6.4 0.00 0.00 0.00 46 1016.4